| time (UTC) | temp F | wind direction | speed knots | gust knots | rain 1hr in | rain 24hr in | rain mn in | humidity % | barometer mb |
| 20260507100013 | 50 | 195 | 4.3 | 12.2 | 0.00 | 0.00 | 0.00 | 41 | 1013.3 |
| 20260507094511 | 50 | 275 | 4.3 | 16.5 | 0.00 | 0.00 | 0.00 | 39 | 1013.2 |
| 20260507093011 | 51 | 203 | 7.8 | 17.4 | 0.00 | 0.00 | 0.00 | 37 | 1013.1 |
| 20260507091510 | 51 | 169 | 13.0 | 18.2 | 0.00 | 0.00 | 0.00 | 37 | 1013.1 |
| 20260507090009 | 52 | 159 | 7.0 | 12.2 | 0.00 | 0.00 | 0.00 | 35 | 1013.4 |
| 20260507084507 | 49 | 167 | 7.8 | 13.9 | 0.00 | 0.00 | 0.00 | 39 | 1013.4 |
| 20260507083005 | 49 | 182 | 9.6 | 13.0 | 0.00 | 0.00 | 0.00 | 37 | 1013.5 |
| 20260507081506 | 49 | 166 | 9.6 | 15.6 | 0.00 | 0.00 | 0.00 | 38 | 1013.6 |
| 20260507080105 | 49 | 176 | 7.0 | 15.6 | 0.00 | 0.00 | 0.00 | 39 | 1013.7 |
| 20260507074603 | 48 | 182 | 2.6 | 7.0 | 0.00 | 0.00 | 0.00 | 45 | 1013.7 |
| 20260507073057 | 45 | 151 | 0.9 | 5.2 | 0.00 | 0.00 | 0.00 | 52 | 1013.7 |
| 20260507071550 | 44 | 173 | 3.5 | 6.1 | 0.00 | 0.00 | 0.00 | 52 | 1013.8 |
| 20260507070049 | 44 | 176 | 5.2 | 8.7 | 0.00 | 0.00 | 0.00 | 54 | 1014.0 |
| 20260507064548 | 43 | 161 | 3.5 | 7.0 | 0.00 | 0.00 | 0.00 | 57 | 1014.0 |
| 20260507063043 | 42 | 169 | 5.2 | 8.7 | 0.00 | 0.00 | 0.00 | 57 | 1013.9 |
| 20260507061540 | 41 | 163 | 8.7 | 9.6 | 0.00 | 0.00 | 0.00 | 58 | 1013.8 |
| 20260507060040 | 40 | 180 | 6.1 | 7.8 | 0.00 | 0.00 | 0.00 | 63 | 1013.7 |
| 20260507054531 | 39 | 149 | 2.6 | 6.1 | 0.00 | 0.00 | 0.00 | 66 | 1013.5 |
| 20260507053027 | 37 | 161 | 3.5 | 5.2 | 0.00 | 0.00 | 0.00 | 69 | 1013.6 |
| 20260507051523 | 36 | 170 | 4.3 | 7.0 | 0.00 | 0.00 | 0.00 | 71 | 1013.5 |
| 20260507050026 | 35 | 159 | 5.2 | 7.8 | 0.00 | 0.00 | 0.00 | 73 | 1013.5 |
| 20260507044516 | 34 | 157 | 4.3 | 7.0 | 0.00 | 0.00 | 0.00 | 75 | 1013.6 |
| 20260507043020 | 32 | 163 | 5.2 | 7.8 | 0.00 | 0.00 | 0.00 | 78 | 1013.5 |
| 20260507041509 | 32 | 157 | 2.6 | 6.1 | 0.00 | 0.00 | 0.00 | 78 | 1013.4 |
| 20260507040007 | 31 | 153 | 3.5 | 6.1 | 0.00 | 0.00 | 0.00 | 80 | 1013.3 |
| 20260507034506 | 30 | 154 | 4.3 | 7.8 | 0.00 | 0.00 | 0.00 | 82 | 1013.4 |
| 20260507033001 | 29 | 147 | 4.3 | 7.8 | 0.00 | 0.00 | 0.00 | 84 | 1013.4 |
| 20260507031558 | 27 | 155 | 6.1 | 7.8 | 0.00 | 0.00 | 0.00 | 87 | 1013.5 |
| 20260507030056 | 25 | 159 | 3.5 | 7.8 | 0.00 | 0.00 | 0.00 | 88 | 1013.4 |
| 20260507024555 | 24 | 157 | 4.3 | 7.0 | 0.00 | 0.00 | 0.00 | 88 | 1013.5 |
| 20260507023103 | 23 | 169 | 1.7 | 3.5 | 0.00 | 0.00 | 0.00 | 87 | 1013.4 |
| 20260507021549 | 23 | 215 | 0.0 | 1.7 | 0.00 | 0.00 | 0.00 | 86 | 1013.4 |
| 20260507020051 | 24 | 215 | 0.0 | 1.7 | 0.00 | 0.00 | 0.00 | 85 | 1013.3 |
| 20260507014544 | 24 | 216 | 0.0 | 0.9 | 0.00 | 0.00 | 0.00 | 86 | 1013.4 |
| 20260507013043 | 24 | 216 | 0.0 | 0.9 | 0.00 | 0.00 | 0.00 | 86 | 1013.3 |
| 20260507011546 | 24 | 216 | 0.0 | 1.7 | 0.00 | 0.00 | 0.00 | 87 | 1013.4 |
| 20260507010041 | 24 | 236 | 0.0 | 1.7 | 0.00 | 0.00 | 0.00 | 86 | 1013.3 |
| 20260507004541 | 24 | 243 | 0.0 | 0.9 | 0.00 | 0.00 | 0.00 | 85 | 1013.4 |
| 20260507003038 | 24 | 243 | 0.0 | 0.0 | 0.00 | 0.00 | 0.00 | 85 | 1013.2 |
| 20260507001604 | 24 | 243 | 0.0 | 0.0 | 0.00 | 0.00 | 0.00 | 84 | 1013.3 |
| 20260507000041 | 24 | 243 | 0.0 | 0.9 | 0.00 | 0.00 | 0.00 | 83 | 1013.2 |
| 20260506234533 | 24 | 243 | 0.0 | 0.0 | 0.00 | 0.00 | 0.00 | 82 | 1013.0 |
| 20260506233031 | 25 | 243 | 0.0 | 0.9 | 0.00 | 0.00 | 0.00 | 82 | 1012.9 |
| 20260506231530 | 25 | 243 | 0.0 | 1.7 | 0.00 | 0.00 | 0.00 | 82 | 1013.0 |
| 20260506230045 | 26 | 244 | 0.0 | 0.0 | 0.00 | 0.00 | 0.00 | 81 | 1013.0 |
| 20260506224526 | 26 | 244 | 0.0 | 0.9 | 0.00 | 0.00 | 0.00 | 80 | 1013.0 |
| 20260506223029 | 27 | 244 | 0.0 | 0.9 | 0.00 | 0.00 | 0.00 | 79 | 1012.9 |
| 20260506221520 | 28 | 244 | 0.0 | 0.0 | 0.00 | 0.00 | 0.00 | 78 | 1013.0 |
| 20260506220017 | 28 | 244 | 0.0 | 0.0 | 0.00 | 0.00 | 0.00 | 76 | 1012.8 |
| 20260506214514 | 29 | 244 | 0.0 | 1.7 | 0.00 | 0.00 | 0.00 | 76 | 1012.7 |
| 20260506213010 | 30 | 244 | 0.0 | 0.9 | 0.00 | 0.00 | 0.00 | 78 | 1012.6 |
| 20260506211507 | 30 | 244 | 0.0 | 0.0 | 0.00 | 0.00 | 0.00 | 75 | 1012.4 |
| 20260506210007 | 31 | 244 | 0.0 | 0.0 | 0.00 | 0.00 | 0.00 | 72 | 1012.3 |
| 20260506204502 | 32 | 244 | 0.0 | 0.0 | 0.00 | 0.00 | 0.00 | 70 | 1012.2 |
| 20260506203001 | 33 | 244 | 0.0 | 0.0 | 0.00 | 0.00 | 0.00 | 68 | 1012.1 |
| 20260506201559 | 35 | 244 | 0.0 | 0.0 | 0.00 | 0.00 | 0.00 | 66 | 1012.0 |
| 20260506194601 | 38 | 244 | 0.0 | 0.0 | 0.00 | 0.00 | 0.00 | 62 | 1011.9 |
| 20260506193105 | 39 | 244 | 0.0 | 1.7 | 0.00 | 0.00 | 0.00 | 61 | 1011.9 |
| 20260506191556 | 40 | 244 | 0.0 | 3.5 | 0.00 | 0.00 | 0.00 | 60 | 1011.9 |
| 20260506190055 | 41 | 228 | 1.7 | 7.0 | 0.00 | 0.00 | 0.00 | 60 | 1011.8 |
| 20260506184554 | 42 | 238 | 0.9 | 6.1 | 0.00 | 0.00 | 0.00 | 59 | 1011.7 |
| 20260506183103 | 43 | 238 | 0.9 | 6.1 | 0.00 | 0.00 | 0.00 | 58 | 1011.6 |
| 20260506181555 | 44 | 246 | 1.7 | 7.8 | 0.00 | 0.00 | 0.00 | 56 | 1011.4 |
| 20260506180051 | 44 | 240 | 2.6 | 7.0 | 0.00 | 0.00 | 0.00 | 55 | 1011.2 |
| 20260506174548 | 45 | 251 | 1.7 | 8.7 | 0.00 | 0.00 | 0.00 | 53 | 1011.1 |
| 20260506173049 | 45 | 248 | 2.6 | 10.4 | 0.00 | 0.00 | 0.00 | 54 | 1010.9 |
| 20260506171545 | 46 | 335 | 0.9 | 7.8 | 0.00 | 0.00 | 0.00 | 53 | 1010.8 |
| 20260506170052 | 47 | 275 | 2.6 | 9.6 | 0.00 | 0.00 | 0.00 | 51 | 1010.7 |
| 20260506164555 | 48 | 259 | 3.5 | 9.6 | 0.00 | 0.00 | 0.00 | 50 | 1010.6 |
| 20260506163045 | 49 | 269 | 4.3 | 10.4 | 0.00 | 0.00 | 0.00 | 48 | 1010.5 |
| 20260506161540 | 49 | 271 | 6.1 | 10.4 | 0.00 | 0.00 | 0.00 | 48 | 1010.4 |
| 20260506160038 | 49 | 281 | 3.5 | 7.8 | 0.00 | 0.00 | 0.00 | 50 | 1010.3 |
| 20260506154539 | 49 | 261 | 0.9 | 8.7 | 0.00 | 0.00 | 0.00 | 50 | 1010.2 |
| 20260506153037 | 48 | 248 | 4.3 | 9.6 | 0.00 | 0.00 | 0.00 | 50 | 1010.2 |
| 20260506151539 | 49 | 300 | 2.6 | 11.3 | 0.00 | 0.00 | 0.00 | 48 | 1010.2 |
| 20260506150042 | 48 | 291 | 2.6 | 7.8 | 0.00 | 0.00 | 0.00 | 52 | 1010.2 |
| 20260506144536 | 47 | 266 | 6.1 | 13.0 | 0.00 | 0.00 | 0.00 | 50 | 1010.2 |
| 20260506143039 | 48 | 242 | 2.6 | 10.4 | 0.00 | 0.00 | 0.00 | 50 | 1010.2 |
| 20260506141541 | 49 | 269 | 3.5 | 12.2 | 0.00 | 0.00 | 0.00 | 48 | 1010.2 |
| 20260506140034 | 51 | 261 | 6.1 | 16.5 | 0.00 | 0.00 | 0.00 | 47 | 1010.2 |
| 20260506134631 | 51 | 273 | 4.3 | 12.2 | 0.00 | 0.00 | 0.00 | 49 | 1010.1 |
| 20260506133029 | 50 | 294 | 3.5 | 13.0 | 0.00 | 0.00 | 0.00 | 50 | 1010.1 |
| 20260506131528 | 48 | 305 | 4.3 | 13.9 | 0.00 | 0.00 | 0.00 | 53 | 1009.9 |
| 20260506130030 | 47 | 313 | 5.2 | 13.0 | 0.00 | 0.00 | 0.00 | 56 | 1009.8 |
| 20260506124528 | 47 | 327 | 8.7 | 16.5 | 0.00 | 0.00 | 0.00 | 55 | 1010.0 |
| 20260506123027 | 47 | 279 | 6.1 | 13.0 | 0.00 | 0.00 | 0.00 | 54 | 1009.9 |
| 20260506121524 | 45 | 321 | 7.0 | 13.0 | 0.00 | 0.00 | 0.00 | 56 | 1009.9 |
| 20260506120046 | 45 | 292 | 5.2 | 13.9 | 0.00 | 0.00 | 0.00 | 55 | 1009.9 |
| 20260506114522 | 46 | 256 | 7.0 | 19.1 | 0.00 | 0.00 | 0.00 | 54 | 1009.8 |
| 20260506113021 | 47 | 273 | 7.8 | 15.6 | 0.00 | 0.00 | 0.00 | 53 | 1009.5 |
| 20260506111518 | 46 | 278 | 9.6 | 18.2 | 0.00 | 0.00 | 0.00 | 54 | 1009.2 |
| 20260506110016 | 47 | 257 | 6.1 | 17.4 | 0.00 | 0.00 | 0.00 | 51 | 1009.0 |
| 20260506104526 | 50 | 254 | 7.0 | 14.8 | 0.00 | 0.00 | 0.00 | 47 | 1008.8 |
| 20260506103033 | 49 | 290 | 4.3 | 17.4 | 0.00 | 0.00 | 0.00 | 47 | 1008.6 |
| 20260506101509 | 49 | 290 | 7.8 | 15.6 | 0.00 | 0.00 | 0.00 | 45 | 1008.5 |